START_TIME,STEP,MOV.,M34,t_acc.,L5,t_acc.,L18,t_acc.,L14,t_acc.
1980-11-15 03:00:13.280 ,3,0,0.,12.0,0.,12.0,0.,12.0,0.,12.0
1980-11-15 03:00:25.280 ,3,0,0.,12.0,0.,12.0,0.,12.0,0.,12.0
1980-11-15 03:00:37.280 ,2,1,0.,12.0,0.,12.0,0.,12.0,0.,12.0
1980-11-15 03:00:49.280 ,2,1,0.,12.0,0.,12.0,0.,12.0,0.,12.0
1980-11-15 03:01:01.280 ,2,0,0.,12.0,0.,12.0,0.,12.0,0.,12.0
1980-11-15 03:01:13.280 ,2,0,0.,12.0,0.,12.0,0.,12.0,0.,12.0
1980-11-15 03:01:25.280 ,1,1,0.,12.0,0.,12.0,0.,12.0,0.,12.0
1980-11-15 03:01:37.280 ,1,1,0.,12.0,0.,12.0,0.,12.0,0.,12.0
1980-11-15 03:01:49.280 ,1,0,0.,12.0,0.,12.0,0.,12.0,0.,12.0
1980-11-15 03:02:01.280 ,1,0,0.,12.0,0.,12.0,0.,12.0,0.,12.0
1980-11-15 03:02:13.280 ,0,1,0.,12.0,0.,12.0,0.,12.0,0.,12.0
1980-11-15 03:02:25.280 ,0,1,0.,12.0,0.,12.0,0.,12.0,0.,12.0
1980-11-15 03:02:37.280 ,0,0,0.,12.0,0.,12.0,0.,12.0,0.,12.0
1980-11-15 03:02:49.280 ,0,0,0.,12.0,0.,12.0,0.,12.0,0.,12.0
1980-11-15 03:03:01.280 ,0,1,0.,12.0,0.,12.0,0.,12.0,0.,12.0
1980-11-15 03:03:13.280 ,0,1,0.,12.0,0.,12.0,0.,12.0,0.,12.0
1980-11-15 03:03:25.280 ,0,0,0.,12.0,0.,12.0,0.,12.0,0.,12.0
1980-11-15 03:03:37.280 ,0,0,0.,12.0,0.,12.0,0.,12.0,0.,12.0
1980-11-15 03:03:49.280 ,1,1,0.,12.0,0.,12.0,0.,12.0,0.,12.0
1980-11-15 03:04:01.280 ,1,1,0.,12.0,0.,12.0,0.,12.0,0.,12.0
1980-11-15 03:04:13.280 ,1,0,0.,12.0,0.,12.0,0.,12.0,0.,12.0
1980-11-15 03:04:25.280 ,1,0,0.,12.0,0.,12.0,0.,12.0,0.,12.0
1980-11-15 03:04:37.280 ,2,1,0.,12.0,0.,12.0,0.,12.0,0.,12.0
1980-11-15 03:04:49.280 ,2,1,0.,12.0,0.,12.0,0.,12.0,0.,12.0
1980-11-15 03:05:01.280 ,2,0,0.,12.0,0.,12.0,0.,12.0,0.,12.0
1980-11-15 03:05:13.280 ,2,0,0.,12.0,0.,12.0,0.,12.0,0.,12.0
1980-11-15 03:05:25.280 ,3,1,0.,12.0,0.,12.0,0.,12.0,0.,12.0
1980-11-15 03:05:37.280 ,3,1,0.,12.0,0.,12.0,0.,12.0,0.,12.0
1980-11-15 03:05:49.280 ,3,0,0.,12.0,0.,12.0,0.,12.0,0.,12.0
1980-11-15 03:06:01.280 ,3,0,0.,12.0,0.,12.0,0.,12.0,0.,12.0
1980-11-15 03:06:13.280 ,4,1,0.,12.0,0.,12.0,0.,12.0,0.,12.0
1980-11-15 03:06:25.280 ,4,1,0.,12.0,0.,12.0,0.,12.0,0.,12.0
1980-11-15 03:06:37.280 ,4,0,0.,12.0,0.,12.0,0.,12.0,0.,12.0
1980-11-15 03:06:49.280 ,4,0,0.,12.0,0.,12.0,0.,12.0,0.,12.0
1980-11-15 03:07:01.280 ,5,1,0.,12.0,0.,12.0,0.,12.0,0.,12.0
1980-11-15 03:07:13.280 ,5,1,0.,12.0,0.,12.0,0.,12.0,0.,12.0
1980-11-15 03:07:25.280 ,5,0,0.,12.0,0.,12.0,0.,12.0,0.,12.0
1980-11-15 03:07:37.280 ,5,0,0.,12.0,0.,12.0,0.,12.0,0.,12.0
1980-11-15 03:07:49.280 ,6,1,0.,12.0,0.,12.0,0.,12.0,0.,12.0
1980-11-15 03:08:01.280 ,6,1,0.,12.0,0.,12.0,0.,12.0,0.,12.0
1980-11-15 03:08:13.280 ,6,0,0.,12.0,0.,12.0,0.,12.0,0.,12.0
1980-11-15 03:08:25.280 ,6,0,0.,12.0,0.,12.0,0.,12.0,0.,12.0
1980-11-15 03:08:37.280 ,7,1,0.,12.0,0.,12.0,0.,12.0,0.,12.0
1980-11-15 03:08:49.280 ,7,1,0.,12.0,3.,12.0,0.,12.0,0.,12.0
1980-11-15 03:09:01.280 ,7,0,0.,12.0,2.,12.0,0.,12.0,0.,12.0
1980-11-15 03:09:13.280 ,7,0,0.,12.0,6.,12.0,0.,12.0,0.,12.0
1980-11-15 03:09:25.280 ,7,1,0.,12.0,2.,12.0,0.,12.0,0.,12.0
1980-11-15 03:09:37.280 ,7,1,0.,12.0,6.,12.0,0.,12.0,0.,12.0
1980-11-15 03:09:49.280 ,7,0,0.,12.0,3.,12.0,0.,12.0,0.,12.0
1980-11-15 03:10:01.280 ,7,0,0.,12.0,6.,12.0,0.,12.0,0.,12.0
1980-11-15 03:10:13.280 ,6,1,0.,12.0,6.,12.0,0.,12.0,0.,12.0
1980-11-15 03:10:25.280 ,6,1,0.,12.0,1.,12.0,0.,12.0,0.,12.0
1980-11-15 03:10:37.280 ,6,0,0.,12.0,0.,12.0,0.,12.0,1.,12.0
1980-11-15 03:10:49.280 ,6,0,0.,12.0,0.,12.0,0.,12.0,0.,12.0
1980-11-15 03:11:01.280 ,5,1,0.,12.0,0.,12.0,0.,12.0,0.,12.0
1980-11-15 03:11:13.280 ,5,1,0.,12.0,0.,12.0,0.,12.0,0.,12.0
1980-11-15 03:11:25.280 ,5,0,0.,12.0,0.,12.0,0.,12.0,0.,12.0
1980-11-15 03:11:37.280 ,5,0,0.,12.0,0.,12.0,0.,12.0,0.,12.0
1980-11-15 03:11:49.280 ,4,1,0.,12.0,0.,12.0,0.,12.0,0.,12.0
1980-11-15 03:12:01.280 ,4,1,0.,12.0,0.,12.0,0.,12.0,0.,12.0
1980-11-15 03:12:13.280 ,4,0,0.,12.0,0.,12.0,0.,12.0,0.,12.0
1980-11-15 03:12:25.280 ,4,0,0.,12.0,0.,12.0,0.,12.0,0.,12.0
1980-11-15 03:12:37.280 ,3,1,0.,12.0,0.,12.0,0.,12.0,0.,12.0
1980-11-15 03:12:49.280 ,3,1,0.,12.0,0.,12.0,0.,12.0,0.,12.0
1980-11-15 03:13:01.280 ,3,0,0.,12.0,0.,12.0,0.,12.0,0.,12.0
1980-11-15 03:13:13.280 ,3,0,0.,12.0,0.,12.0,0.,12.0,0.,12.0
1980-11-15 03:13:25.280 ,2,1,0.,12.0,0.,12.0,0.,12.0,0.,12.0
1980-11-15 03:13:37.280 ,2,1,0.,12.0,0.,12.0,0.,12.0,0.,12.0
1980-11-15 03:13:49.280 ,2,0,0.,12.0,0.,12.0,0.,12.0,0.,12.0
1980-11-15 03:14:01.280 ,2,0,0.,12.0,0.,12.0,0.,12.0,0.,12.0
1980-11-15 03:14:13.280 ,1,1,0.,12.0,0.,12.0,0.,12.0,0.,12.0
1980-11-15 03:14:25.280 ,1,1,0.,12.0,0.,12.0,0.,12.0,0.,12.0
1980-11-15 03:14:37.280 ,1,0,0.,12.0,0.,12.0,0.,12.0,0.,12.0
1980-11-15 03:14:49.280 ,1,0,0.,12.0,0.,12.0,0.,12.0,0.,12.0
1980-11-15 03:15:01.280 ,0,1,0.,12.0,0.,12.0,0.,12.0,0.,12.0
1980-11-15 03:15:13.280 ,0,1,0.,12.0,0.,12.0,0.,12.0,0.,12.0
1980-11-15 03:15:25.280 ,0,0,0.,12.0,0.,12.0,0.,12.0,0.,12.0
1980-11-15 03:15:37.280 ,0,0,0.,12.0,0.,12.0,0.,12.0,0.,12.0
1980-11-15 03:15:49.280 ,0,1,0.,12.0,0.,12.0,0.,12.0,0.,12.0
1980-11-15 03:16:01.280 ,0,1,0.,12.0,0.,12.0,0.,12.0,0.,12.0
1980-11-15 03:16:13.280 ,0,0,0.,12.0,0.,12.0,0.,12.0,0.,12.0
1980-11-15 03:16:25.280 ,0,0,0.,12.0,0.,12.0,0.,12.0,0.,12.0
1980-11-15 03:16:37.280 ,1,1,0.,12.0,0.,12.0,0.,12.0,0.,12.0
1980-11-15 03:16:49.280 ,1,1,0.,12.0,0.,12.0,0.,12.0,0.,12.0
1980-11-15 03:17:01.280 ,1,0,0.,12.0,0.,12.0,0.,12.0,0.,12.0
1980-11-15 03:17:13.280 ,1,0,0.,12.0,0.,12.0,0.,12.0,0.,12.0
1980-11-15 03:17:25.280 ,2,1,0.,12.0,0.,12.0,0.,12.0,0.,12.0
1980-11-15 03:17:37.280 ,2,1,0.,12.0,0.,12.0,0.,12.0,0.,12.0
1980-11-15 03:17:49.280 ,2,0,0.,12.0,0.,12.0,0.,12.0,0.,12.0
1980-11-15 03:18:01.280 ,2,0,0.,12.0,0.,12.0,0.,12.0,0.,12.0
1980-11-15 03:18:13.280 ,3,1,0.,12.0,0.,12.0,0.,12.0,0.,12.0
1980-11-15 03:18:25.280 ,3,1,0.,12.0,0.,12.0,0.,12.0,0.,12.0
1980-11-15 03:18:37.280 ,3,0,0.,12.0,0.,12.0,0.,12.0,0.,12.0
1980-11-15 03:18:49.280 ,3,0,0.,12.0,0.,12.0,0.,12.0,0.,12.0
1980-11-15 03:19:01.280 ,4,1,0.,12.0,0.,12.0,0.,12.0,0.,12.0
1980-11-15 03:19:13.280 ,4,1,0.,12.0,0.,12.0,0.,12.0,0.,12.0
1980-11-15 03:19:25.280 ,4,0,0.,12.0,0.,12.0,0.,12.0,0.,12.0
1980-11-15 03:19:37.280 ,4,0,0.,12.0,0.,12.0,0.,12.0,0.,12.0
1980-11-15 03:19:49.280 ,5,1,0.,12.0,0.,12.0,0.,12.0,0.,12.0
1980-11-15 03:20:01.280 ,5,1,0.,12.0,0.,12.0,0.,12.0,0.,12.0
1980-11-15 03:20:13.280 ,5,0,0.,12.0,0.,12.0,0.,12.0,0.,12.0
1980-11-15 03:20:25.280 ,5,0,0.,12.0,0.,12.0,0.,12.0,0.,12.0
1980-11-15 03:20:37.280 ,6,1,0.,12.0,0.,12.0,0.,12.0,0.,12.0
1980-11-15 03:20:49.280 ,6,1,0.,12.0,0.,12.0,0.,12.0,0.,12.0
1980-11-15 03:21:01.280 ,6,0,0.,12.0,0.,12.0,0.,12.0,0.,12.0
1980-11-15 03:21:13.280 ,6,0,0.,12.0,0.,12.0,0.,12.0,0.,12.0
1980-11-15 03:21:25.280 ,7,1,0.,12.0,0.,12.0,0.,12.0,0.,12.0
1980-11-15 03:21:37.280 ,7,1,0.,12.0,3.,12.0,0.,12.0,0.,12.0
1980-11-15 03:21:49.280 ,7,0,0.,12.0,1.,12.0,0.,12.0,0.,12.0
1980-11-15 03:22:01.280 ,7,0,0.,12.0,3.,12.0,0.,12.0,0.,12.0
1980-11-15 03:22:13.280 ,7,1,0.,12.0,5.,12.0,0.,12.0,0.,12.0
1980-11-15 03:22:25.280 ,7,1,0.,12.0,3.,12.0,0.,12.0,0.,12.0
1980-11-15 03:22:37.280 ,7,0,0.,12.0,4.,12.0,0.,12.0,0.,12.0
1980-11-15 03:22:49.280 ,7,0,0.,12.0,4.,12.0,0.,12.0,0.,12.0
1980-11-15 03:23:01.280 ,6,1,0.,12.0,3.,12.0,0.,12.0,0.,12.0
1980-11-15 03:23:13.280 ,6,1,0.,12.0,0.,12.0,0.,12.0,0.,12.0
1980-11-15 03:23:25.280 ,6,0,0.,12.0,0.,12.0,0.,12.0,0.,12.0
1980-11-15 03:23:37.280 ,6,0,0.,12.0,0.,12.0,0.,12.0,0.,12.0
1980-11-15 03:23:49.280 ,5,1,0.,12.0,0.,12.0,0.,12.0,0.,12.0
1980-11-15 03:24:01.280 ,5,1,0.,12.0,0.,12.0,0.,12.0,0.,12.0
1980-11-15 03:24:13.280 ,5,0,0.,12.0,0.,12.0,0.,12.0,0.,12.0
1980-11-15 03:24:25.280 ,5,0,0.,12.0,0.,12.0,0.,12.0,0.,12.0
1980-11-15 03:24:37.280 ,4,1,0.,12.0,0.,12.0,0.,12.0,0.,12.0
1980-11-15 03:24:49.280 ,4,1,0.,12.0,0.,12.0,0.,12.0,0.,12.0
1980-11-15 03:25:01.280 ,4,0,0.,12.0,0.,12.0,0.,12.0,0.,12.0
1980-11-15 03:25:13.280 ,4,0,0.,12.0,0.,12.0,0.,12.0,0.,12.0
1980-11-15 03:25:25.280 ,3,1,0.,12.0,0.,12.0,0.,12.0,0.,12.0
1980-11-15 03:25:37.280 ,3,1,0.,12.0,0.,12.0,0.,12.0,0.,12.0
1980-11-15 03:25:49.280 ,3,0,0.,12.0,0.,12.0,0.,12.0,0.,12.0
1980-11-15 03:26:01.280 ,3,0,0.,12.0,0.,12.0,0.,12.0,0.,12.0
1980-11-15 03:26:13.280 ,2,1,0.,12.0,0.,12.0,0.,12.0,0.,12.0
1980-11-15 03:26:25.280 ,2,1,0.,12.0,0.,12.0,0.,12.0,0.,12.0
1980-11-15 03:26:37.280 ,2,0,0.,12.0,0.,12.0,0.,12.0,0.,12.0
1980-11-15 03:26:49.280 ,2,0,0.,12.0,0.,12.0,0.,12.0,0.,12.0
1980-11-15 03:27:01.280 ,1,1,0.,12.0,0.,12.0,0.,12.0,0.,12.0
1980-11-15 03:27:13.280 ,1,1,0.,12.0,0.,12.0,0.,12.0,0.,12.0
1980-11-15 03:27:25.280 ,1,0,0.,12.0,0.,12.0,0.,12.0,0.,12.0
1980-11-15 03:27:37.280 ,1,0,0.,12.0,0.,12.0,0.,12.0,0.,12.0
1980-11-15 03:27:49.280 ,0,1,0.,12.0,0.,12.0,0.,12.0,0.,12.0
1980-11-15 03:28:01.280 ,0,1,0.,12.0,0.,12.0,0.,12.0,0.,12.0
1980-11-15 03:28:13.280 ,0,0,0.,12.0,0.,12.0,0.,12.0,0.,12.0
1980-11-15 03:28:25.280 ,0,0,0.,12.0,0.,12.0,0.,12.0,0.,12.0
1980-11-15 03:28:37.280 ,0,1,0.,12.0,0.,12.0,0.,12.0,0.,12.0
1980-11-15 03:28:49.280 ,0,1,0.,12.0,0.,12.0,0.,12.0,0.,12.0
1980-11-15 03:29:01.280 ,0,0,0.,12.0,0.,12.0,0.,12.0,0.,12.0
1980-11-15 03:29:13.280 ,0,0,0.,12.0,0.,12.0,0.,12.0,0.,12.0
1980-11-15 03:29:25.280 ,1,1,0.,12.0,0.,12.0,0.,12.0,0.,12.0
1980-11-15 03:29:37.280 ,1,1,0.,12.0,0.,12.0,0.,12.0,0.,12.0
1980-11-15 03:29:49.280 ,1,0,0.,12.0,0.,12.0,0.,12.0,0.,12.0
1980-11-15 03:30:01.280 ,1,0,0.,12.0,0.,12.0,0.,12.0,0.,12.0
1980-11-15 03:30:13.280 ,2,1,0.,12.0,0.,12.0,0.,12.0,0.,12.0
1980-11-15 03:30:25.280 ,2,1,0.,12.0,0.,12.0,0.,12.0,0.,12.0
1980-11-15 03:30:37.280 ,2,0,0.,12.0,0.,12.0,0.,12.0,0.,12.0
1980-11-15 03:30:49.280 ,2,0,0.,12.0,0.,12.0,0.,12.0,0.,12.0
1980-11-15 03:31:01.280 ,3,1,0.,12.0,0.,12.0,0.,12.0,0.,12.0
1980-11-15 03:31:13.280 ,3,1,0.,12.0,0.,12.0,0.,12.0,0.,12.0
1980-11-15 03:31:25.280 ,3,0,0.,12.0,0.,12.0,0.,12.0,0.,12.0
1980-11-15 03:31:37.280 ,3,0,0.,12.0,0.,12.0,0.,12.0,0.,12.0
1980-11-15 03:31:49.280 ,4,1,0.,12.0,0.,12.0,0.,12.0,0.,12.0
1980-11-15 03:32:01.280 ,4,1,0.,12.0,0.,12.0,0.,12.0,0.,12.0
1980-11-15 03:32:13.280 ,4,0,0.,12.0,0.,12.0,0.,12.0,0.,12.0
1980-11-15 03:32:25.280 ,4,0,0.,12.0,0.,12.0,0.,12.0,0.,12.0
1980-11-15 03:32:37.280 ,5,1,0.,12.0,0.,12.0,0.,12.0,0.,12.0
1980-11-15 03:32:49.280 ,5,1,0.,12.0,0.,12.0,0.,12.0,0.,12.0
1980-11-15 03:33:01.280 ,5,0,0.,12.0,0.,12.0,0.,12.0,0.,12.0
1980-11-15 03:33:13.280 ,5,0,0.,12.0,0.,12.0,0.,12.0,0.,12.0
1980-11-15 03:33:25.280 ,6,1,0.,12.0,0.,12.0,0.,12.0,0.,12.0
1980-11-15 03:33:37.280 ,6,1,0.,12.0,0.,12.0,0.,12.0,0.,12.0
1980-11-15 03:33:49.280 ,6,0,0.,12.0,0.,12.0,0.,12.0,0.,12.0
1980-11-15 03:34:01.280 ,6,0,0.,12.0,0.,12.0,0.,12.0,0.,12.0
1980-11-15 03:34:13.280 ,7,1,0.,12.0,0.,12.0,0.,12.0,0.,12.0
1980-11-15 03:34:25.280 ,7,1,0.,12.0,3.,12.0,0.,12.0,0.,12.0
1980-11-15 03:34:37.280 ,7,0,0.,12.0,2.,12.0,0.,12.0,0.,12.0
1980-11-15 03:34:49.280 ,7,0,0.,12.0,5.,12.0,0.,12.0,0.,12.0
1980-11-15 03:35:01.280 ,7,1,0.,12.0,4.,12.0,0.,12.0,0.,12.0
1980-11-15 03:35:13.280 ,7,1,0.,12.0,3.,12.0,0.,12.0,0.,12.0
1980-11-15 03:35:25.280 ,7,0,0.,12.0,3.,12.0,0.,12.0,0.,12.0
1980-11-15 03:35:37.280 ,7,0,0.,12.0,2.,12.0,0.,12.0,0.,12.0
1980-11-15 03:35:49.280 ,6,1,0.,12.0,1.,12.0,0.,12.0,0.,12.0
1980-11-15 03:36:01.280 ,6,1,0.,12.0,0.,12.0,0.,12.0,0.,12.0
1980-11-15 03:36:13.280 ,6,0,0.,12.0,0.,12.0,0.,12.0,0.,12.0
1980-11-15 03:36:25.280 ,6,0,0.,12.0,0.,12.0,0.,12.0,0.,12.0
1980-11-15 03:36:37.280 ,5,1,0.,12.0,0.,12.0,0.,12.0,0.,12.0
1980-11-15 03:36:49.280 ,5,1,0.,12.0,0.,12.0,0.,12.0,0.,12.0
1980-11-15 03:37:01.280 ,5,0,0.,12.0,0.,12.0,0.,12.0,0.,12.0
1980-11-15 03:37:13.280 ,5,0,0.,12.0,0.,12.0,0.,12.0,0.,12.0
1980-11-15 03:37:25.280 ,4,1,0.,12.0,0.,12.0,0.,12.0,0.,12.0
1980-11-15 03:37:37.280 ,4,1,0.,12.0,0.,12.0,0.,12.0,0.,12.0
1980-11-15 03:37:49.280 ,4,0,0.,12.0,0.,12.0,0.,12.0,0.,12.0
1980-11-15 03:38:01.280 ,4,0,0.,12.0,0.,12.0,0.,12.0,0.,12.0
1980-11-15 03:38:13.280 ,3,1,0.,12.0,0.,12.0,0.,12.0,0.,12.0
1980-11-15 03:38:25.280 ,3,1,0.,12.0,0.,12.0,0.,12.0,0.,12.0
1980-11-15 03:38:37.280 ,3,0,0.,12.0,0.,12.0,0.,12.0,0.,12.0
1980-11-15 03:38:49.280 ,3,0,0.,12.0,0.,12.0,0.,12.0,0.,12.0
1980-11-15 03:39:01.280 ,2,1,0.,12.0,0.,12.0,0.,12.0,0.,12.0
1980-11-15 03:39:13.280 ,2,1,0.,12.0,0.,12.0,0.,12.0,0.,12.0
1980-11-15 03:39:25.280 ,2,0,0.,12.0,0.,12.0,0.,12.0,0.,12.0
1980-11-15 03:39:37.280 ,2,0,0.,12.0,0.,12.0,0.,12.0,0.,12.0
1980-11-15 03:39:49.280 ,1,1,0.,12.0,0.,12.0,0.,12.0,0.,12.0
1980-11-15 03:40:01.280 ,1,1,0.,12.0,0.,12.0,0.,12.0,0.,12.0
1980-11-15 03:40:13.280 ,1,0,0.,12.0,0.,12.0,0.,12.0,0.,12.0
1980-11-15 03:40:25.280 ,1,0,0.,12.0,0.,12.0,0.,12.0,0.,12.0
1980-11-15 03:40:37.280 ,0,1,0.,12.0,0.,12.0,0.,12.0,0.,12.0
1980-11-15 03:40:49.280 ,0,1,0.,12.0,0.,12.0,0.,12.0,0.,12.0
1980-11-15 03:41:01.280 ,0,0,0.,12.0,0.,12.0,0.,12.0,0.,12.0
1980-11-15 03:41:13.280 ,0,0,0.,12.0,0.,12.0,0.,12.0,0.,12.0
1980-11-15 03:41:25.280 ,0,1,0.,12.0,0.,12.0,0.,12.0,0.,12.0
1980-11-15 03:41:37.280 ,0,1,0.,12.0,0.,12.0,0.,12.0,0.,12.0
1980-11-15 03:41:49.280 ,0,0,0.,12.0,0.,12.0,0.,12.0,0.,12.0
1980-11-15 03:42:01.280 ,0,0,0.,12.0,0.,12.0,0.,12.0,0.,12.0
1980-11-15 03:42:13.280 ,1,1,0.,12.0,0.,12.0,0.,12.0,0.,12.0
1980-11-15 03:42:25.280 ,1,1,0.,12.0,0.,12.0,0.,12.0,0.,12.0
1980-11-15 03:42:37.280 ,1,0,0.,12.0,0.,12.0,0.,12.0,0.,12.0
1980-11-15 03:42:49.280 ,1,0,0.,12.0,0.,12.0,0.,12.0,0.,12.0
1980-11-15 03:43:01.280 ,2,1,0.,12.0,0.,12.0,0.,12.0,0.,12.0
1980-11-15 03:43:13.280 ,2,1,0.,12.0,0.,12.0,0.,12.0,0.,12.0
1980-11-15 03:43:25.280 ,2,0,0.,12.0,0.,12.0,0.,12.0,0.,12.0
1980-11-15 03:43:37.280 ,2,0,0.,12.0,0.,12.0,0.,12.0,0.,12.0
1980-11-15 03:43:49.280 ,3,1,0.,12.0,0.,12.0,0.,12.0,0.,12.0
1980-11-15 03:44:01.280 ,3,1,0.,12.0,0.,12.0,0.,12.0,0.,12.0
1980-11-15 03:44:13.280 ,3,0,0.,12.0,0.,12.0,0.,12.0,0.,12.0
1980-11-15 03:44:25.280 ,3,0,0.,12.0,0.,12.0,0.,12.0,0.,12.0
1980-11-15 03:44:37.280 ,4,1,0.,12.0,0.,12.0,0.,12.0,0.,12.0
1980-11-15 03:44:49.280 ,4,1,0.,12.0,0.,12.0,0.,12.0,0.,12.0
1980-11-15 03:45:01.280 ,4,0,0.,12.0,0.,12.0,0.,12.0,0.,12.0
1980-11-15 03:45:13.280 ,4,0,0.,12.0,0.,12.0,0.,12.0,0.,12.0
1980-11-15 03:45:25.280 ,5,1,0.,12.0,0.,12.0,0.,12.0,0.,12.0
1980-11-15 03:45:37.280 ,5,1,0.,12.0,0.,12.0,0.,12.0,0.,12.0
1980-11-15 03:45:49.280 ,5,0,0.,12.0,0.,12.0,0.,12.0,0.,12.0
1980-11-15 03:46:01.280 ,5,0,0.,12.0,0.,12.0,0.,12.0,0.,12.0
1980-11-15 03:46:13.280 ,6,1,0.,12.0,0.,12.0,0.,12.0,0.,12.0
1980-11-15 03:46:25.280 ,6,1,0.,12.0,0.,12.0,0.,12.0,0.,12.0
1980-11-15 03:46:37.280 ,6,0,0.,12.0,0.,12.0,0.,12.0,0.,12.0
1980-11-15 03:46:49.280 ,6,0,0.,12.0,0.,12.0,0.,12.0,0.,12.0
1980-11-15 03:47:01.280 ,7,1,0.,12.0,0.,12.0,0.,12.0,0.,12.0
1980-11-15 03:47:13.280 ,7,1,0.,12.0,1.,12.0,0.,12.0,0.,12.0
1980-11-15 03:47:25.280 ,7,0,0.,12.0,6.,12.0,0.,12.0,0.,12.0
1980-11-15 03:47:37.280 ,7,0,0.,12.0,5.,12.0,0.,12.0,0.,12.0
1980-11-15 03:47:49.280 ,7,1,0.,12.0,4.,12.0,0.,12.0,0.,12.0
1980-11-15 03:48:01.280 ,7,1,0.,12.0,3.,12.0,0.,12.0,0.,12.0
1980-11-15 03:48:13.280 ,7,0,0.,12.0,6.,12.0,0.,12.0,0.,12.0
1980-11-15 03:48:25.280 ,7,0,0.,12.0,2.,12.0,0.,12.0,0.,12.0
1980-11-15 03:48:37.280 ,6,1,0.,12.0,4.,12.0,0.,12.0,0.,12.0
1980-11-15 03:48:49.280 ,6,1,0.,12.0,2.,12.0,0.,12.0,0.,12.0
1980-11-15 03:49:01.280 ,6,0,0.,12.0,0.,12.0,0.,12.0,0.,12.0
1980-11-15 03:49:13.280 ,6,0,0.,12.0,0.,12.0,0.,12.0,0.,12.0
1980-11-15 03:49:25.280 ,5,1,0.,12.0,0.,12.0,0.,12.0,0.,12.0
1980-11-15 03:49:37.280 ,5,1,0.,12.0,0.,12.0,0.,12.0,0.,12.0
1980-11-15 03:49:49.280 ,5,0,0.,12.0,0.,12.0,0.,12.0,0.,12.0
1980-11-15 03:50:01.280 ,5,0,0.,12.0,0.,12.0,0.,12.0,0.,12.0
1980-11-15 03:50:13.280 ,4,1,0.,12.0,0.,12.0,0.,12.0,0.,12.0
1980-11-15 03:50:25.280 ,4,1,0.,12.0,0.,12.0,0.,12.0,0.,12.0
1980-11-15 03:50:37.280 ,4,0,0.,12.0,0.,12.0,0.,12.0,0.,12.0
1980-11-15 03:50:49.280 ,4,0,0.,12.0,0.,12.0,0.,12.0,0.,12.0
1980-11-15 03:51:01.280 ,3,1,0.,12.0,0.,12.0,0.,12.0,0.,12.0
1980-11-15 03:51:13.280 ,3,1,0.,12.0,0.,12.0,0.,12.0,0.,12.0
1980-11-15 03:51:25.280 ,3,0,0.,12.0,0.,12.0,0.,12.0,0.,12.0
1980-11-15 03:51:37.280 ,3,0,0.,12.0,0.,12.0,0.,12.0,0.,12.0
1980-11-15 03:51:49.280 ,2,1,0.,12.0,0.,12.0,0.,12.0,0.,12.0
1980-11-15 03:52:01.280 ,2,1,0.,12.0,0.,12.0,0.,12.0,0.,12.0
1980-11-15 03:52:13.280 ,2,0,0.,12.0,0.,12.0,0.,12.0,0.,12.0
1980-11-15 03:52:25.280 ,2,0,0.,12.0,0.,12.0,0.,12.0,0.,12.0
1980-11-15 03:52:37.280 ,1,1,0.,12.0,0.,12.0,0.,12.0,0.,12.0
1980-11-15 03:52:49.280 ,1,1,0.,12.0,0.,12.0,0.,12.0,0.,12.0
1980-11-15 03:53:01.280 ,1,0,0.,12.0,0.,12.0,0.,12.0,0.,12.0
1980-11-15 03:53:13.280 ,1,0,0.,12.0,0.,12.0,0.,12.0,0.,12.0
1980-11-15 03:53:25.280 ,0,1,0.,12.0,0.,12.0,0.,12.0,0.,12.0
1980-11-15 03:53:37.280 ,0,1,0.,12.0,0.,12.0,0.,12.0,0.,12.0
1980-11-15 03:53:49.280 ,0,0,0.,12.0,0.,12.0,0.,12.0,0.,12.0
1980-11-15 03:54:01.280 ,0,0,0.,12.0,0.,12.0,0.,12.0,0.,12.0
1980-11-15 03:54:13.280 ,0,1,0.,12.0,0.,12.0,0.,12.0,0.,12.0
1980-11-15 03:54:25.280 ,0,1,0.,12.0,0.,12.0,0.,12.0,0.,12.0
1980-11-15 03:54:37.280 ,0,0,0.,12.0,0.,12.0,0.,12.0,0.,12.0
1980-11-15 03:54:49.280 ,0,0,0.,12.0,0.,12.0,0.,12.0,0.,12.0
1980-11-15 03:55:19.280 ,0,0,,0,,0,,0,,0
1980-11-15 03:55:31.280 ,0,0,,0,,0,,0,,0
1980-11-15 03:55:25.280 ,0,0,0.,12.0,0.,12.0,0.,12.0,0.,12.0
1980-11-15 03:55:37.280 ,0,0,0.,12.0,0.,12.0,0.,12.0,0.,12.0
1980-11-15 03:55:49.280 ,2,1,0.,12.0,0.,12.0,0.,12.0,0.,12.0
1980-11-15 03:56:01.280 ,2,1,0.,12.0,0.,12.0,0.,12.0,0.,12.0
1980-11-15 03:56:13.280 ,2,0,0.,12.0,0.,12.0,0.,12.0,0.,12.0
1980-11-15 03:56:25.280 ,2,0,0.,12.0,0.,12.0,0.,12.0,0.,12.0
1980-11-15 03:56:37.280 ,3,1,0.,12.0,0.,12.0,0.,12.0,0.,12.0
1980-11-15 03:56:49.280 ,3,1,0.,12.0,0.,12.0,0.,12.0,0.,12.0
1980-11-15 03:57:01.280 ,3,0,0.,12.0,0.,12.0,0.,12.0,0.,12.0
1980-11-15 03:57:13.280 ,3,0,0.,12.0,0.,12.0,0.,12.0,0.,12.0
1980-11-15 03:57:25.280 ,4,1,0.,12.0,0.,12.0,0.,12.0,0.,12.0
1980-11-15 03:57:37.280 ,4,1,0.,12.0,0.,12.0,0.,12.0,0.,12.0
1980-11-15 03:57:49.280 ,4,0,0.,12.0,0.,12.0,0.,12.0,0.,12.0
1980-11-15 03:58:01.280 ,4,0,0.,12.0,0.,12.0,0.,12.0,0.,12.0
1980-11-15 03:58:13.280 ,5,1,0.,12.0,0.,12.0,0.,12.0,0.,12.0
1980-11-15 03:58:25.280 ,5,1,0.,12.0,0.,12.0,0.,12.0,0.,12.0
1980-11-15 03:58:37.280 ,5,0,0.,12.0,0.,12.0,0.,12.0,0.,12.0
1980-11-15 03:58:49.280 ,5,0,0.,12.0,0.,12.0,0.,12.0,0.,12.0
1980-11-15 03:59:01.280 ,6,1,0.,12.0,0.,12.0,0.,12.0,0.,12.0
1980-11-15 03:59:13.280 ,6,1,0.,12.0,0.,12.0,0.,12.0,0.,12.0
1980-11-15 03:59:25.280 ,6,0,0.,12.0,0.,12.0,0.,12.0,0.,12.0
1980-11-15 03:59:37.280 ,6,0,0.,12.0,0.,12.0,0.,12.0,0.,12.0
1980-11-15 03:59:49.280 ,7,1,0.,12.0,0.,12.0,0.,12.0,0.,12.0
1980-11-15 04:00:01.280 ,7,1,0.,12.0,2.,12.0,0.,12.0,0.,12.0
1980-11-15 04:00:13.280 ,7,0,0.,12.0,5.,12.0,0.,12.0,0.,12.0
1980-11-15 04:00:25.280 ,7,0,0.,12.0,7.,12.0,0.,12.0,0.,12.0
1980-11-15 04:00:37.280 ,7,1,,0,,0,,0,,0
1980-11-15 04:00:49.280 ,7,1,0.,12.0,5.,12.0,0.,12.0,0.,12.0
1980-11-15 04:01:01.280 ,7,0,0.,12.0,2.,12.0,0.,12.0,0.,12.0
1980-11-15 04:01:13.280 ,7,0,0.,12.0,2.,12.0,0.,12.0,0.,12.0
1980-11-15 04:01:25.280 ,6,1,0.,12.0,4.,12.0,0.,12.0,0.,12.0
1980-11-15 04:01:37.280 ,6,1,0.,12.0,1.,12.0,0.,12.0,0.,12.0
1980-11-15 04:01:49.280 ,6,0,0.,12.0,0.,12.0,0.,12.0,0.,12.0
1980-11-15 04:02:01.280 ,6,0,0.,12.0,0.,12.0,0.,12.0,0.,12.0
1980-11-15 04:02:13.280 ,5,1,0.,12.0,0.,12.0,0.,12.0,0.,12.0
1980-11-15 04:02:25.280 ,5,1,0.,12.0,0.,12.0,0.,12.0,0.,12.0
1980-11-15 04:02:37.280 ,5,0,0.,12.0,0.,12.0,0.,12.0,0.,12.0
1980-11-15 04:02:49.280 ,5,0,0.,12.0,0.,12.0,0.,12.0,0.,12.0
1980-11-15 04:03:01.280 ,4,1,0.,12.0,0.,12.0,0.,12.0,0.,12.0
1980-11-15 04:03:13.280 ,4,1,0.,12.0,0.,12.0,0.,12.0,0.,12.0
1980-11-15 04:03:25.280 ,0,0,0.,12.0,0.,12.0,0.,12.0,0.,12.0
1980-11-15 04:03:37.280 ,0,0,0.,12.0,0.,12.0,0.,12.0,0.,12.0
1980-11-15 04:04:17.480 ,0,0,,0,,0,,0,,0
1980-11-15 04:04:29.480 ,0,0,0.,12.0,0.,12.0,0.,12.0,0.,12.0
1980-11-15 04:04:37.280 ,2,1,0.,12.0,0.,12.0,0.,12.0,0.,12.0
1980-11-15 04:04:49.280 ,2,1,0.,12.0,0.,12.0,0.,12.0,0.,12.0
1980-11-15 04:05:01.280 ,2,0,0.,12.0,0.,12.0,0.,12.0,0.,12.0
1980-11-15 04:05:13.280 ,2,0,0.,12.0,0.,12.0,0.,12.0,0.,12.0
1980-11-15 04:05:25.280 ,1,1,0.,12.0,0.,12.0,0.,12.0,0.,12.0
1980-11-15 04:05:37.280 ,1,1,0.,12.0,0.,12.0,0.,12.0,0.,12.0
1980-11-15 04:05:49.280 ,1,0,0.,12.0,0.,12.0,0.,12.0,0.,12.0
1980-11-15 04:06:01.280 ,1,0,0.,12.0,0.,12.0,0.,12.0,0.,12.0
1980-11-15 04:06:13.280 ,0,1,0.,12.0,0.,12.0,0.,12.0,0.,12.0
1980-11-15 04:06:25.280 ,0,1,0.,12.0,0.,12.0,0.,12.0,0.,12.0
1980-11-15 04:06:37.280 ,0,0,0.,12.0,0.,12.0,0.,12.0,0.,12.0
1980-11-15 04:06:49.280 ,0,0,0.,12.0,0.,12.0,0.,12.0,0.,12.0
1980-11-15 04:07:01.280 ,0,1,0.,12.0,0.,12.0,0.,12.0,0.,12.0
1980-11-15 04:07:13.280 ,0,1,0.,12.0,0.,12.0,0.,12.0,0.,12.0
1980-11-15 04:07:25.280 ,0,0,0.,12.0,0.,12.0,0.,12.0,0.,12.0
1980-11-15 04:07:37.280 ,0,0,0.,12.0,0.,12.0,0.,12.0,0.,12.0
1980-11-15 04:07:49.280 ,1,1,0.,12.0,0.,12.0,0.,12.0,0.,12.0
1980-11-15 04:08:01.280 ,1,1,0.,12.0,0.,12.0,0.,12.0,0.,12.0
1980-11-15 04:08:13.280 ,1,0,0.,12.0,0.,12.0,0.,12.0,0.,12.0
1980-11-15 04:08:25.280 ,1,0,0.,12.0,0.,12.0,0.,12.0,0.,12.0
1980-11-15 04:08:37.280 ,2,1,0.,12.0,0.,12.0,0.,12.0,0.,12.0
1980-11-15 04:08:49.280 ,2,1,0.,12.0,0.,12.0,0.,12.0,0.,12.0
1980-11-15 04:09:01.280 ,2,0,0.,12.0,0.,12.0,0.,12.0,0.,12.0
1980-11-15 04:09:13.280 ,2,0,0.,12.0,0.,12.0,0.,12.0,0.,12.0
1980-11-15 04:09:25.280 ,3,1,0.,12.0,0.,12.0,0.,12.0,0.,12.0
1980-11-15 04:09:37.280 ,3,1,0.,12.0,0.,12.0,0.,12.0,0.,12.0
1980-11-15 04:09:49.280 ,3,0,0.,12.0,0.,12.0,0.,12.0,0.,12.0
1980-11-15 04:10:01.280 ,3,0,0.,12.0,0.,12.0,0.,12.0,0.,12.0
1980-11-15 04:10:13.280 ,4,1,0.,12.0,0.,12.0,0.,12.0,0.,12.0
1980-11-15 04:10:25.280 ,4,1,0.,12.0,0.,12.0,0.,12.0,0.,12.0
1980-11-15 04:10:37.280 ,4,0,0.,12.0,0.,12.0,0.,12.0,0.,12.0
1980-11-15 04:10:49.280 ,4,0,0.,12.0,0.,12.0,0.,12.0,0.,12.0
1980-11-15 04:11:01.280 ,5,1,0.,12.0,0.,12.0,0.,12.0,0.,12.0
1980-11-15 04:11:13.280 ,5,1,0.,12.0,0.,12.0,0.,12.0,0.,12.0
1980-11-15 04:11:25.280 ,5,0,0.,12.0,0.,12.0,0.,12.0,0.,12.0
1980-11-15 04:11:37.280 ,5,0,0.,12.0,0.,12.0,0.,12.0,0.,12.0
1980-11-15 04:11:49.280 ,6,1,0.,12.0,0.,12.0,0.,12.0,0.,12.0
1980-11-15 04:12:01.280 ,6,1,0.,12.0,0.,12.0,0.,12.0,0.,12.0
1980-11-15 04:12:13.280 ,6,0,0.,12.0,0.,12.0,0.,12.0,0.,12.0
1980-11-15 04:12:25.280 ,6,0,0.,12.0,0.,12.0,0.,12.0,0.,12.0
1980-11-15 04:12:37.280 ,7,1,0.,12.0,0.,12.0,0.,12.0,0.,12.0
1980-11-15 04:12:49.280 ,7,1,0.,12.0,2.,12.0,0.,12.0,0.,12.0
1980-11-15 04:13:01.280 ,7,0,0.,12.0,5.,12.0,0.,12.0,0.,12.0
1980-11-15 04:13:13.280 ,7,0,0.,12.0,0.,12.0,0.,12.0,0.,12.0
1980-11-15 04:13:25.280 ,7,1,0.,12.0,6.,12.0,0.,12.0,0.,12.0
1980-11-15 04:13:37.280 ,7,1,0.,12.0,3.,12.0,0.,12.0,0.,12.0
1980-11-15 04:13:49.280 ,7,0,0.,12.0,2.,12.0,0.,12.0,0.,12.0
1980-11-15 04:14:01.280 ,7,0,0.,12.0,2.,12.0,0.,12.0,0.,12.0
1980-11-15 04:14:13.280 ,6,1,0.,12.0,4.,12.0,0.,12.0,0.,12.0
1980-11-15 04:14:25.280 ,6,1,0.,12.0,4.,12.0,0.,12.0,0.,12.0
1980-11-15 04:14:37.280 ,6,0,0.,12.0,0.,12.0,0.,12.0,0.,12.0
1980-11-15 04:14:49.280 ,6,0,0.,12.0,0.,12.0,0.,12.0,0.,12.0
1980-11-15 04:15:01.280 ,5,1,0.,12.0,0.,12.0,0.,12.0,0.,12.0
1980-11-15 04:15:13.280 ,5,1,0.,12.0,0.,12.0,0.,12.0,0.,12.0
1980-11-15 04:15:25.280 ,5,0,0.,12.0,0.,12.0,0.,12.0,0.,12.0
1980-11-15 04:15:37.280 ,5,0,0.,12.0,0.,12.0,0.,12.0,0.,12.0
1980-11-15 04:15:49.280 ,4,1,0.,12.0,0.,12.0,0.,12.0,0.,12.0
1980-11-15 04:16:01.280 ,4,1,0.,12.0,0.,12.0,0.,12.0,0.,12.0
1980-11-15 04:16:13.280 ,4,0,0.,12.0,0.,12.0,0.,12.0,0.,12.0
1980-11-15 04:16:25.280 ,4,0,0.,12.0,0.,12.0,0.,12.0,0.,12.0
1980-11-15 04:16:37.280 ,3,1,0.,12.0,0.,12.0,0.,12.0,0.,12.0
1980-11-15 04:16:49.280 ,3,1,0.,12.0,0.,12.0,0.,12.0,0.,12.0
1980-11-15 04:17:01.280 ,3,0,0.,12.0,0.,12.0,0.,12.0,0.,12.0
1980-11-15 04:17:13.280 ,3,0,0.,12.0,0.,12.0,0.,12.0,0.,12.0
1980-11-15 04:17:25.280 ,2,1,0.,12.0,0.,12.0,0.,12.0,0.,12.0
1980-11-15 04:17:37.280 ,2,1,0.,12.0,0.,12.0,0.,12.0,0.,12.0
1980-11-15 04:17:49.280 ,2,0,0.,12.0,0.,12.0,0.,12.0,0.,12.0